Weather History for Lake Charles Regional, LA

Change the Weather History Date:

Wednesday, November 9, 2011

  Actual Average Record
Temperature  
Mean Temperature 61 °F 63 °F  
Max Temperature 67 °F 74 °F 88 °F (1916)
Min Temperature 55 °F 53 °F 28 °F (1991)
Degree Days  
Heating Degree Days 4 4  
Month to date heating degree days 31 31  
Since 1 July heating degree days 86 67  
Cooling Degree Days 0 2  
Month to date cooling degree days 27 25  
Year to date cooling degree days 3184 2758  
Growing Degree Days 10 (Base 50)    
Moisture  
Dew Point 50 °F    
Average Humidity 71    
Maximum Humidity 93    
Minimum Humidity 48    
Precipitation  
Precipitation T in 0.16 in 3.29 in (1940)
Month to date precipitation 1.08 1.45  
Year to date precipitation 32.63 49.83  
Snow  
Snow 0.00 in 0.00 in 0.00 in ()
Month to date snowfall 0.0 0.0  
Since 1 July snowfall 0.0 0.0  
Since 1 September snowfall 0.0 0.0  
Snow Depth 0.00 in    
Sea Level Pressure  
Sea Level Pressure 30.15 in    
Wind  
Wind Speed 12 mph (North)    
Max Wind Speed 23 mph    
Max Gust Speed 28 mph    
Visibility 10 miles    
Events Rain    
T = Trace of Precipitation, MM = Missing Value Source: NWS Daily Summary

Daily Weather History Graph

Daily Weather History Graph

Search for Another Location

Airport:

Trip Planner

Search our weather history database for the weather conditions in past years. The results will help you decide how hot, cold, wet, or windy it might be!

Date:

Astronomy

Nov. 09, 2011 Rise Set
Actual Time 6:33 AM CST 5:19 PM CST
Civil Twilight 6:07 AM CST 5:45 PM CST
Nautical Twilight 5:39 AM CST 6:13 PM CST
Astronomical Twilight 5:11 AM CST 6:41 PM CST
Moon 4:33 PM CST (11/9) 5:29 AM CST (11/9)
Length of Visible Light 11h 37m
Length of Day
10h 46m
Waxing Gibbous, 99% of the Moon is Illuminated
Nov 9
Waxing Gibbous
Nov 10
Full
Nov 18
Last Quarter
Nov 25
New
Dec 2
First Quarter

Hourly Weather History & Observations

Time (CST) Temp. Dew Point Humidity Pressure Visibility Wind Dir Wind Speed Gust Speed Precip Events Conditions
12:19 AM 66.2 °F 64.4 °F 94% 30.01 in 10.0 mi North 4.6 mph - N/A   Overcast
12:53 AM 66.0 °F 63.0 °F 90% 30.04 in 10.0 mi NNW 6.9 mph - N/A   Overcast
1:02 AM 66.2 °F 62.6 °F 88% 30.01 in 10.0 mi NNW 9.2 mph - N/A   Overcast
1:53 AM 64.0 °F 62.1 °F 93% 30.04 in 10.0 mi North 9.2 mph - N/A   Partly Cloudy
2:53 AM 63.0 °F 59.0 °F 87% 30.05 in 10.0 mi North 5.8 mph - N/A   Clear
3:53 AM 61.0 °F 57.9 °F 90% 30.07 in 10.0 mi North 5.8 mph - N/A   Clear
4:53 AM 60.1 °F 55.9 °F 86% 30.09 in 10.0 mi North 6.9 mph - N/A   Clear
5:53 AM 59.0 °F 55.0 °F 87% 30.12 in 10.0 mi North 6.9 mph - N/A   Clear
6:53 AM 55.9 °F 53.1 °F 90% 30.15 in 10.0 mi North 6.9 mph - N/A   Clear
7:53 AM 57.0 °F 50.0 °F 77% 30.19 in 10.0 mi NNW 15.0 mph 20.7 mph N/A   Clear
8:41 AM 55.4 °F 50.0 °F 82% 30.18 in 10.0 mi North 17.3 mph 23.0 mph N/A   Mostly Cloudy
8:53 AM 57.0 °F 50.0 °F 77% 30.20 in 10.0 mi North 15.0 mph 23.0 mph N/A   Mostly Cloudy
9:11 AM 57.2 °F 51.8 °F 82% 30.18 in 10.0 mi North 13.8 mph - N/A   Scattered Clouds
9:53 AM 60.1 °F 50.0 °F 69% 30.20 in 10.0 mi North 11.5 mph 19.6 mph N/A   Partly Cloudy
10:53 AM 61.0 °F 50.0 °F 67% 30.19 in 10.0 mi NNW 11.5 mph 20.7 mph N/A   Clear
11:53 AM 62.6 °F 48.2 °F 59% 30.15 in 10.0 mi NNW 15.0 mph 20.7 mph N/A   Clear
12:53 PM 64.0 °F 48.0 °F 56% 30.15 in 10.0 mi North 15.0 mph - N/A   Clear
1:53 PM 66.0 °F 46.9 °F 50% 30.14 in 10.0 mi North 13.8 mph 19.6 mph N/A   Clear
2:53 PM 66.0 °F 46.9 °F 50% 30.14 in 10.0 mi North 10.4 mph 23.0 mph N/A   Clear
3:53 PM 64.9 °F 45.0 °F 48% 30.14 in 10.0 mi North 13.8 mph 21.9 mph N/A   Clear
4:53 PM 61.0 °F 44.1 °F 54% 30.15 in 10.0 mi North 15.0 mph 25.3 mph N/A   Clear
5:53 PM 60.1 °F 44.1 °F 55% 30.17 in 10.0 mi North 13.8 mph 26.5 mph N/A   Clear
6:53 PM 57.9 °F 44.1 °F 60% 30.19 in 10.0 mi North 13.8 mph 21.9 mph N/A   Clear
7:53 PM 57.0 °F 44.1 °F 62% 30.23 in 10.0 mi North 11.5 mph - N/A   Clear
8:53 PM 57.0 °F 42.1 °F 57% 30.27 in 10.0 mi North 10.4 mph - N/A   Clear
9:53 PM 57.0 °F 42.1 °F 57% 30.28 in 10.0 mi North 12.7 mph - N/A   Clear
10:53 PM 57.0 °F 41.0 °F 55% 30.30 in 10.0 mi North 15.0 mph - 0.00 in Rain Light Rain
11:53 PM 55.0 °F 41.0 °F 59% 30.30 in 10.0 mi North 15.0 mph - 0.00 in Rain Light Rain